Voltar ao catálogo

STARLINK-37583

AtivoComunicaçõesVLEO
NORAD 69466·PAYLOAD·🇺🇸 United States

Lançado Jun 8, 2026 de Cape Canaveral Space Force Station

Loading…

Próximas Passagens (próximas 24 horas)

TLE

AtualizadoSource: CelesTrak SupGP

Época: Sep 15, 2026, 04:05 UTC

1 69466C 26127Z   26258.17062500 -.00031564  00000+0 -93278-3 0  2583
2 69466  53.1586 190.4310 0001241  81.4430  18.6624 15.34399587    19

Acompanhe STARLINK-37583 em tempo real com AllMySat

Download on the App Store